User: anonymous   Login
Location: Unspecified
(0.0000°N, 0.0000°E)
Time: 02:48:06
(UTC+00:00)
Language:

ATHENOXAT 1 - Orbit

View from above orbital plane
View from above orbital plane
View from above satellite
View from above satellite

Ground track
Ground track

The orbit data is extracted from the following two-line orbital elements,

1 41168U 15077C   17146.91693287 +.00002602 +00000-0 +11033-3 0  9995
2 41168 014.9905 324.8298 0012054 080.1334 163.3147 15.11514806079819
Epoch (UTC): 26 May 2017 22:00:23
Eccentricity: 0.0012054
inclination: 14.9905°
perigee height: 523 km
apogee height: 540 km
right ascension of ascending node: 324.8298°
argument of perigee: 80.1334°
revolutions per day: 15.11514806
mean anomaly at epoch: 163.3147°
orbit number at epoch: 7981

The dashed part of the orbit path shows where the satellite is in the earth's shadow,  

DLR